1st Responders/1st Detectors/Storm Spotters Weather Summary for Adair County, KY

Forecast Maps


Reg. NEXRAD Animation


National Fire Danger: Day 1 & 2 Map

Current NWS Watch/Warnings

SPC Convective Day 1 Outlook


Day 2 Outlook

(Click images to enlarge|Page will refresh every 5 minutes)
UK Ag. Weather Center Desktop Severe Weather Service[HERE]
Adair County, KY Hazardous Weather Outlook Webcast
(9 AM to 9 PM Mon-Fri)
[Fast]
[Dial-up]


UKAWC 1st Detectors/1st Responders Precision Weather Forecast For ADAIR County, Kentucky
(based on the NWS County Digital Forecast)

ISSUED AT 06:00 UTC ON SUNDAY DEC 17 2017
DAY SUNDAY
CDT 3HR 2A 3A 4A 5A 6A 7A 8A 9A 10A 11A NOON 1P 2P 3P 4P 5P 6P
MAX/MIN -- -- -- -- -- 34° -- -- -- -- -- -- -- -- -- -- 47°
TEMP 36° 36° 36° 34° 34° 36° 36° 38° 41° 43° 45° 45° 47° 47° 47° 45° 43°
SKY COVER 48% 54% 60% 66% 71% 77% 84% 92% 100% 100% 99% 99% 99% 99% 100% 100% 100%
Clouds
DEW PT 29° 29° 29° 29° 29° 29° 29° 29° 31° 31° 32° 32° 34° 36° 36° 36° 38°
RH 72% 75% 75% 78% 78% 75% 72% 70% 64% 62% 62% 59% 60% 62% 65% 71% 79%
POP 12HR -- -- -- -- -- 3% -- -- -- -- -- -- -- -- -- -- --
RAIN/SNOW (liq.equ) -- -- -- -- -- 0.00in -- -- -- -- -- 0.07in -- -- -- -- --
SNOWFALL -- -- -- -- -- 0in -- -- -- -- -- 0in -- -- -- -- --
WIND SPEED(MPH) 5 6 5 6 5 5 5 5 5 7 7 7 6 6 5 5 5
WIND Gust(MPH) 7 7 6 7 6 6 6 6 6 7 7 7 7 7 9 7 6
WIND DIR S S S S S S S S S S S S S S S S S
DEW Frost Frost Frost Frost Frost Frost Frost -- -- -- -- -- -- -- -- -- --
HeatIndex 33 31 32 29 31 32 33 35 39 40 41 45 47 47 47 45 41
Snow Showers -- -- -- -- -- -- -- -- -- -- -- -- -- -- -- -- --
Rain Showers -- -- -- -- -- -- -- Slight Chance Slight Chance Chance Chance Likely Likely Likely Likely Chance Chance
WIND CHILL 32° 31° 32° 29° 30° 32° 32° 35° 38° 39° 41° 41° -- -- -- 43° 40°
SPRAY COND
DRY COND
LIVESTOCK COLDSTRESS



DAY MONDAY TUESDAY WEDNESDAY THURSDAY FRIDAY SATURDAY
CDT 6HR 7P 8P 9P 10P 11P MIDN 1A 2A 3A 4A 5A 6A 7A 8A 9A 10A 11A NOON 1P 4P 7P 10P 1A 4A 7A 10A 1P 4P 7P 1A 7A 1P 7P 1A 7A 1P 7P 1A 7A 1P 7P 1A 7A 1P 7P
MAX/MIN -- -- -- -- -- -- -- -- -- -- -- -- 40° -- -- -- -- -- -- 54° -- -- -- -- 43° -- -- 58° -- -- 36° 50° -- -- 36° 56° -- -- 40° 52° -- -- 31° 41° --
TEMP 43° 43° 41° 41° 41° 43° 43° 43° 41° 41° 40° 40° 40° 43° 45° 47° 49° 50° 52° 54° 50° 47° 45° 45° 43° 49° 54° 58° 52° 41° 36° 49° 43° 38° 36° 54° 49° 43° 41° 52° 43° 36° 31° 40° 34°
SKY COVER 100% 98% 95% 93% 91% 88% 86% 86% 86% 86% 86% 86% 86% 85% 84% 83% 82% 81% 80% 76% 72% 61% 50% 60% 70% 67% 64% 58% 52% 52% 39% 60% 43% 31% 38% 36% 49% 56% 83% 94% 92% 86% 87% 87% 91%
Clouds
DEW PT 38° 38° 38° 38° 38° 40° 40° 40° 40° 40° 40° 40° 40° 43° 43° 43° 43° 45° 45° 45° 43° 43° 43° 43° 43° 45° 45° 43° 45° 38° 32° 31° 31° 31° 32° 40° 40° 40° 40° 41° 34° 31° 29° 29° 27°
RH 82% 86% 89% 88% 88% 89% 89% 89% 96% 95% 100% 99% 99% 99% 92% 89% 83% 79% 74% 68% 76% 82% 89% 92% 99% 86% 71% 59% 77% 85% 89% 51% 59% 76% 84% 59% 73% 88% 96% 68% 70% 81% 88% 66% 72%
POP 12HR 65% -- -- -- -- -- -- -- -- -- -- -- 23% -- -- -- -- -- -- -- 9% -- -- -- 5% -- -- -- 19% -- 13% -- 45% -- 24% -- 6% -- 20% -- 35% -- 46% -- 53%
RAIN/SNOW (liq.equ) 0.04in -- -- -- -- -- 0.00in -- -- -- -- -- 0.00in -- -- -- -- -- 0.00in -- 0.00in -- 0.00in -- 0.00in -- 0.00in -- 0.00in -- -- -- -- -- -- -- -- -- -- -- -- -- -- -- --
SNOWFALL 0in -- -- -- -- -- 0in -- -- -- -- -- 0in -- -- -- -- -- 0in -- 0in -- 0in -- 0in -- 0in -- 0in -- -- -- -- -- -- -- -- -- -- -- -- -- -- -- --
WIND SPEED(MPH) 5 5 6 6 6 5 5 5 5 5 5 5 5 5 6 6 7 7 7 7 6 6 7 6 6 7 7 7 5 5 6 7 7 6 5 7 7 8 8 9 8 6 7 7 6
WIND DIR S S S S S S SW SW SW SW SW SW S SW SW SW SW SW SW SW SW SW SW SW SW SW SW W W N NE NE E E E S S S SW W NW N N NW N
HeatIndex 41 40 38 38 38 40 40 40 39 39 38 38 38 40 41 47 49 50 52 54 50 47 45 41 40 49 54 58 52 39 31 49 40 33 33 54 49 38 36 52 38 31 25 35 29
Snow Showers -- -- -- -- -- -- -- -- -- -- -- -- -- -- -- -- -- -- -- -- -- -- -- -- -- -- -- -- -- -- Chance -- -- -- -- -- -- -- -- -- -- Chance Chance -- Chance
Rain Showers Slight Chance Slight Chance Slight Chance -- -- -- -- -- -- -- -- -- -- -- -- -- -- -- -- -- -- -- -- -- -- -- Slight Chance Slight Chance -- -- Chance Chance Slight Chance -- -- -- -- Chance Chance Chance Chance Chance -- Chance Chance
WIND CHILL 40° 40° 37° 37° 37° 40° 40° 40° 38° 38° 37° 37° 37° 40° 42° -- -- -- -- -- -- -- 41° 42° 39° -- -- -- -- 38° 31° -- 39° 34° 32° -- -- 38° 36° -- 38° 31° 25° 35° 29°
SPRAY COND
DRY COND
LIVESTOCK COLDSTRESS

Click on individual weather variable above in left-hand column (ie., TEMP, RH, QPF 12HR) to view state forecast maps






NWS 48 Hr. Forecast Maps,

Regional Hourly Observations For ADAIR County, Kentucky
Issued at 100 AM EST SUN DEC 17 2017
SOUTHEAST KENTUCKY
  
CITY           SKY/WX    TMP DP  RH WIND       PRES   REMARKS
JACKSON        CLOUDY    39  26  59 SW3       30.22F                  
LONDON         CLOUDY    31  26  82 CALM      30.24R                  
SOMERSET       CLOUDY    37  28  70 S5        30.25F WCI  34          
MIDDLESBORO    CLOUDY    30  27  89 CALM      30.26F                  
MONTICELLO     MOCLDY    30  27  88 W9        30.26S WCI  22          


Current NOWCAST not available:
Nowcasts are not issued routinely during fair weather. Only when
precipitation or other significant weather is occuring in this county will these
forecasts be issued. Currently, there is no short term forecast in effect.


Fire Weather Forecast For ADAIR County, KY
Provided by the National Weather Service:

Issued at: Sun Dec 17 01:05:01 EST 2017


                      Today        Tonight      Sun          

CLOUD COVER           MClear       PCldy        Cloudy       
PRECIP TYPE           NONE         NONE         showers      
CHANCE PRECIP (%)     0            0            70           
TEMP (24H TREND)      53 (+17)     33 (+5)      47           
RH % (24H TREND)      41 (-9)      86 (+2)      64           
20FTWND-VAL/AM(MPH)   SW  8 G19                 Lgt/Var      
20FTWND-RDG/PM(MPH)   SW  9 G19    Lgt/Var      Lgt/Var      
PRECIP AMOUNT         0.00         0.00         0.10         
MIXING HGT(FT-AGL/MSL)3164                      1690         
TRANSPORT WND (MPH)   SW 23                     S 13         
VENT RATE (KT-FT)     71760                     22032        
DISPERSION            Good                      Poor         
DSI                   STBL         STBL         STBL         
LAL                   1            1            1            
HAINES INDEX          3            4            3            
ADI EARLY             45 GEN GOOD  4 VERY POOR  18 GEN POOR  
ADI LATE              55 GEN GOOD  5 VERY POOR  24 FAIR      
MAX LVORI EARLY       4            4            4            
MAX LVORI LATE        2            5            4            

REMARKS...ADI IS ATMOSPHERIC DISPERSION INDEX BY LAVDAS.        
LVORI IS LOW VISIBILITY OCCURRENCE RISK INDEX.

.MONDAY...Mostly cloudy. Lows around 40. Highs in the mid 50s.
South winds around 5 mph. 
.TUESDAY...Mostly cloudy. Lows in the lower 40s. Highs in the
upper 50s. Southwest winds around 5 mph. 
.WEDNESDAY...Partly cloudy. Lows in the mid 30s. Highs in the
lower 50s. Northeast winds up to 5 mph. 
.THURSDAY...Partly cloudy. Lows in the mid 30s. Highs in the
upper 50s. South winds up to 10 mph. 
.FRIDAY...Mostly cloudy with a 50 percent chance of rain showers.
Lows in the lower 40s. Highs in the mid 50s. West winds 5 to
10 mph. 

SPC's Fire Weather Web Tool (Excellent!), SPC's Fire Weather Outlooks, NWS Fire Weather WEB, Fire Danger Class Map,
Keetch-Byram Drought Index, ROMAN Web, Haines Index ,
WFAS's 10-hr Dead Fuel Moist., WFAS's 100-hr Dead Fuel Moist., Probablity of Ignition, Visual blackness Map, Palmer Drought Index, HPC's Rainfall Forecast Maps


Hazardous Weather Outlook For ADAIR County, Kentucky
352 PM EST Sat Dec 16 2017 /252 PM CST Sat Dec 16 2017/

 DAY ONE  This Afternoon and Tonight

No hazardous weather is expected at this time.

 DAYS TWO THROUGH SEVEN  Sunday through Friday

The chance for a rain-snow mix is in the forecast for Friday night
into Saturday, but at this time, confidence on the exact timing
and location of any snow remains low. If you plan to travel over
the holiday weekend, stay tuned for later forecasts highlighting
the potential for active winter weather. 

 SPOTTER INFORMATION STATEMENT  

Spotter activation will not be needed.

Latest ADAIR County, Kentucky Watches, Warnings and Advisories.
Additional Drought Info.: UKAWC Drought Page, Kentucky Drought Watch


7-Day Forecast For ADAIR County, KY

OVERNIGHT
Partly cloudy. Lows in the mid 30s. South winds up to 5 mph.

SUNDAY
Rain showers likely. Highs in the upper 40s. South winds up to 10 mph. Chance of showers 70 percent.

SUNDAY NIGHT
Cloudy with a 20 percent chance of rain showers. Lows around 40. South winds around 5 mph.

MONDAY
Mostly cloudy. Highs in the mid 50s. Southwest winds up to 10 mph.

MONDAY NIGHT
Partly cloudy. Lows in the lower 40s. Southwest winds 5 to 10 mph.

TUESDAY
Partly cloudy with a 20 percent chance of showers. Highs in the upper 50s.

TUESDAY NIGHT
Partly cloudy. Lows in the mid 30s.

WEDNESDAY
Partly cloudy with a 50 percent chance of rain showers. Highs around 50.

WEDNESDAY NIGHT
Partly cloudy with a 20 percent chance of rain showers. Lows in the mid 30s.

THURSDAY
Partly cloudy. Highs in the mid 50s.

THURSDAY NIGHT
Partly cloudy with a 20 percent chance of showers. Lows around 40.

FRIDAY
Cloudy with a 40 percent chance of rain showers. Highs in the lower 50s.

FRIDAY NIGHT
Cloudy with a 50 percent chance of rain showers and snow showers. Lows in the lower 30s.

SATURDAY
Mostly cloudy with a 50 percent chance of rain showers and snow showers. Highs in the lower 40s.

Ag Weather Center, Department of Biosystems & Agricultural Engineering, University of Kentucky